Flag for Russia Weather past 2 weeks in Sochi, Russia

Now
75 °F

Overcast.


Feels Like: 76 °F
Forecast: 69 / 78 °F
Wind: 8 mph from Northwest

Location: Adler

Current Time: Jul 5, 2015 at 8:51:47 PM

Latest Report: Jul 5, 2015 at 8:00 PM


Visibility: N/A

Pressure: 29.92 "Hg

Humidity: 78%

Dew point: 68 °F

Location of SochiLocation

Historic Weather in Sochi — Graph

°F

Sochi temperature yesterday

Maximum temperature yesterday: 77 °F (at 10:30 AM)
Minimum temperature yesterday: 66 °F (at 3:30 AM)
Average temperature yesterday: 73 °F

Past Weeks' High & Low Weather Summary

 TemperatureHumidityPressure
High82 °F (Jun 24, 1:00 PM)94% (Jun 21, 3:30 AM)30.09 "Hg (Jun 21, 3:30 AM)
Low63 °F (Jun 28, 3:30 AM)47% (Jun 29, 4:30 PM)29.71 "Hg (Jun 25, 2:00 PM)
Average72 °F77%29.88 "Hg
* Reported Jun 20 7:00 PM — Jul 5 7:30 PM, Sochi, Weather by CustomWeather, © 2015

Note: Actual official high and low records may vary slightly from our data, if they occured in-between our weather recording intervals... More about our weather records

Advertising

Sochi weather history for previous 24 hours

 ConditionsComfort  
Time TempWeatherWind HumidityBarometerVisibility
7:30 PM
Sun, Jul 5
75 °FMostly cloudy.8 mph78%29.92 "HgN/A
7:00 PM75 °FMostly cloudy.8 mph78%29.92 "HgN/A
6:30 PM75 °FOvercast.8 mph78%29.92 "HgN/A
6:00 PM75 °FOvercast.8 mph83%29.92 "HgN/A
5:30 PM77 °FBroken clouds.10 mph79%29.92 "HgN/A
5:00 PM77 °FPartly sunny.10 mph79%29.92 "HgN/A
4:30 PM77 °FBroken clouds.8 mph79%29.92 "HgN/A
4:00 PM77 °FPartly sunny.10 mph79%29.92 "HgN/A
3:30 PM79 °FPartly sunny.10 mph74%29.92 "HgN/A
3:00 PM79 °FPartly sunny.10 mph74%29.92 "HgN/A
2:30 PM79 °FPartly sunny.10 mph70%29.92 "HgN/A
2:00 PM79 °FPartly sunny.8 mph74%29.92 "HgN/A
1:30 PM79 °FScattered clouds.8 mph74%29.92 "HgN/A
1:00 PM79 °FScattered clouds.8 mph74%29.92 "HgN/A
12:30 PM79 °FScattered clouds.8 mph70%29.92 "HgN/A
12:00 PM79 °FScattered clouds.8 mph65%29.95 "HgN/A
11:30 AM79 °FScattered clouds.8 mph65%29.95 "HgN/A
11:00 AM79 °FScattered clouds.8 mph65%29.95 "HgN/A
10:30 AM77 °FScattered clouds.8 mph74%29.95 "HgN/A
10:00 AM77 °FPartly sunny.8 mph74%29.95 "HgN/A
9:30 AM77 °FScattered clouds.6 mph69%29.95 "HgN/A
9:00 AM77 °FScattered clouds.6 mph69%29.98 "HgN/A
8:30 AM77 °FScattered clouds.3 mph69%29.98 "HgN/A
8:00 AM77 °FScattered clouds.1 mph74%29.98 "HgN/A
7:30 AM75 °FScattered clouds.1 mph78%29.98 "HgN/A
7:00 AM72 °FScattered clouds.3 mph88%29.98 "HgN/A
6:30 AM70 °FScattered clouds.No wind88%29.98 "HgN/A
6:00 AM70 °FScattered clouds.No wind88%29.98 "HgN/A
5:30 AM70 °FPassing clouds.1 mph88%29.98 "HgN/A
5:00 AM70 °FPassing clouds.No wind88%29.98 "HgN/A
4:30 AM70 °FPassing clouds.No wind88%29.98 "HgN/A
4:00 AM70 °FPassing clouds.1 mph88%29.98 "HgN/A
3:30 AM70 °FPassing clouds.3 mph88%30.01 "HgN/A
3:00 AM70 °FPassing clouds.6 mph88%30.01 "HgN/A
2:30 AM70 °FPassing clouds.6 mph88%30.01 "HgN/A
2:00 AM70 °FPassing clouds.6 mph88%30.01 "HgN/A
1:30 AM70 °FPassing clouds.1 mph88%30.01 "HgN/A
1:00 AM70 °FPassing clouds.6 mph88%30.01 "HgN/A
12:30 AM72 °FPartly cloudy.6 mph83%30.04 "HgN/A
12:00 AM72 °FPartly cloudy.3 mph83%30.04 "HgN/A
11:30 PM
Sat, Jul 4
72 °FOvercast.6 mph83%30.04 "HgN/A
11:00 PM72 °FOvercast.3 mph83%30.04 "HgN/A
10:30 PM72 °FOvercast.3 mph88%30.04 "HgN/A
10:00 PM72 °FOvercast.1 mph83%30.04 "HgN/A
9:30 PM72 °FOvercast.1 mph83%30.04 "HgN/A
9:00 PM72 °FOvercast.No wind88%30.04 "HgN/A
8:30 PM72 °FOvercast.No wind83%30.04 "HgN/A
8:00 PM72 °FOvercast.3 mph83%30.01 "HgN/A
Weather by CustomWeather, © 2015

See weather overviewHow to use our weather pages